Regional Weather Roundup
Issued by NWS

Home | Current Version | Previous Version | Text Only | Print | Product List | Glossary On
Versions: 1 2 3 4 5 6 7 8 9 10 11 12 13 14 15 16 17 18 19 20 21 22 23 24 25 26 27
000
ASUS46 KPQR 220410
RWROR

OREGON REGIONAL WEATHER ROUNDUP
NATIONAL WEATHER SERVICE PORTLAND OR
900 PM PDT MON AUG 21 2017

NOTE: "FAIR" INDICATES FEW OR NO CLOUDS BELOW 12,000 FEET WITH
NO SIGNIFICANT WEATHER AND/OR OBSTRUCTIONS TO VISIBILITY.

ORZ001>013-220500-
NORTHWEST OREGON


CITY           SKY/WX    TMP DP  RH WIND       PRES   REMARKS
ASTORIA        CLEAR     61  55  81 CALM      29.98R
NEWPORT        DRZL/FOG  54  54 100 NW7       30.02R VSB 1/2
PORTLAND       PTCLDY    80  56  43 W10       29.91R
VANCOUVER WA   CLEAR     80  56  43 NW8       29.90S
SCAPPOOSE      CLEAR     80  52  37 NW9       29.91S
HILLSBORO      CLEAR     75  55  49 NW6       29.92R
AURORA         NOT AVBL
MCMINNVILLE    CLEAR     80  55  42 N7        29.92R
SALEM          CLEAR     77  58  51 CALM      29.91R
CORVALLIS      CLEAR     73  57  56 NW5       29.95R
EUGENE         PTCLDY    71  58  63 SW7       29.94R
$$

ORZ021-028-220500-
SOUTHWEST OREGON


CITY           SKY/WX    TMP DP  RH WIND       PRES   REMARKS
NORTH BEND     CLOUDY    56  54  93 W6        30.05R
BROOKINGS      CLOUDY    55  53  93 NW5       30.06R
ROSEBURG       CLEAR     76  56  49 N3        29.96R HAZE
SEXTON SUMMIT  CLOUDY    64  46  52 N10       30.11R HAZE
GRANTS PASS    CLOUDY    66  54  63 CALM      30.03R
MEDFORD        CLOUDY    73  51  46 NW6       29.98R HAZE
$$

ORZ014>016-041-220500-
COLUMBIA GORGE


CITY           SKY/WX    TMP DP  RH WIND       PRES   REMARKS
TROUTDALE      CLEAR     78  56  46 W7        29.90R
HOOD RIVER     CLEAR     68  55  64 CALM      29.96R
THE DALLES     CLEAR     77  42  28 S6        29.94R
$$

ORZ029>031-041-044-049-050-061>064-502-503-505>511-220500-
EASTERN OREGON


CITY           SKY/WX    TMP DP  RH WIND       PRES   REMARKS
MADRAS         CLEAR     70  39  32 N9        30.06R
REDMOND        CLEAR     75  36  24 NW9       30.06R
BEND           CLEAR     73  39  29 W7        30.10R
PRINEVILLE     CLEAR     73  39  29 W6        30.07R
KLAMATH FALLS  CLEAR     73  51  46 NW6       30.08R
LAKEVIEW       CLEAR    N/A N/A N/A N10       30.14R
HERMISTON      CLEAR     69  48  47 NE5       29.96R
PENDLETON      CLEAR     71  41  33 NE9       30.00S
JOHN DAY       CLEAR     75  35  23 CALM      30.10R
MEACHAM        CLEAR     60  38  43 CALM      30.14S
LA GRANDE      NOT AVBL
BAKER CITY     CLEAR     62  45  53 CALM      30.11R
BURNS          CLEAR     61  35  37 N7        30.12R
ROME             N/A     73  27  18 E9        30.10R
ONTARIO        CLEAR     70  51  51 CALM      30.02R
$$




USA.gov is the U.S. government's official web portal to all federal, state and local government web resources and services.